Greeley, CO

2:59 AM MDT on September 21, 2019 (GMT -0600)
Greeley-Weld County

Weather History for KGXY - August, 2019

Change the Weather History Date:

Monday, August 19, 2019

  Actual Average Record
Temperature  
Mean Temperature 77 °F -  
Max Temperature 100 °F - 100 °F (2019)
Min Temperature 55 °F - 42 °F (1978)
Degree Days  
Heating Degree Days 0    
Month to date heating degree days  
Cooling Degree Days 12    
Month to date cooling degree days  
Growing Degree Days 27 (Base 50)    
Moisture  
Dew Point 46 °F    
Average Humidity 44    
Maximum Humidity 87    
Minimum Humidity 9    
Precipitation  
Precipitation 0.00 in - 0.69 in (2016)
Snow  
Snow 0.00 in - - ()
Snow Depth -    
Sea Level Pressure  
Sea Level Pressure 29.92 in    
Wind  
Wind Speed 6 mph (North)    
Max Wind Speed 12 mph    
Max Gust Speed -    
Visibility 9 miles    
Events      
T = Trace of Precipitation, MM = Missing Value Source: NWS Daily Summary

Daily Weather History Graph

Daily Weather History Graph

Search for Another Location

Airport or City:

Astronomy

Aug. 19, 2019 Rise Set
Actual Time 6:13 AM MDT 7:50 PM MDT
Civil Twilight 5:44 AM MDT 8:19 PM MDT
Nautical Twilight 5:09 AM MDT 8:54 PM MDT
Astronomical Twilight 4:31 AM MDT 9:31 PM MDT
Moon 10:12 PM MDT (8/19) 9:57 AM MDT (8/19)
Length of Visible Light 14h 35m
Length of Day
13h 37m
Waning Gibbous, 85% of the Moon is Illuminated
Aug 19
Waning Gibbous
Aug 23
Last Quarter
Aug 30
New
Sep 5
First Quarter
Sep 13
Full

Hourly Weather History & Observations

Time (MDT) Temp. Dew Point Humidity Pressure Visibility Wind Dir Wind Speed Gust Speed Precip Events Conditions
12:56 AM 62.1 °F 54.0 °F 75% 29.92 in 7.0 mi NE 3.5 mph - N/A   Unknown
1:56 AM 57.9 °F 54.0 °F 87% 29.92 in 10.0 mi WNW 8.1 mph - N/A   Unknown
2:56 AM 59.0 °F 53.1 °F 81% 29.90 in 10.0 mi NNE 5.8 mph - N/A   Unknown
3:56 AM 57.0 °F 53.1 °F 87% 29.91 in 10.0 mi North 6.9 mph - N/A   Unknown
4:56 AM 55.9 °F 52.0 °F 87% 29.91 in 10.0 mi North 5.8 mph - N/A   Unknown
5:56 AM 55.9 °F 51.1 °F 84% 29.93 in 10.0 mi North 5.8 mph - N/A   Unknown
6:56 AM 55.0 °F 51.1 °F 86% 29.95 in 10.0 mi WNW 4.6 mph - N/A   Unknown
7:56 AM 64.0 °F 45.0 °F 50% 29.97 in 10.0 mi West 6.9 mph - N/A   Unknown
8:56 AM 73.0 °F 48.9 °F 42% 29.96 in 10.0 mi South 5.8 mph - N/A   Unknown
9:56 AM 81.0 °F 44.1 °F 27% 29.96 in 10.0 mi West 5.8 mph - N/A   Unknown
10:56 AM 86.0 °F 45.0 °F 24% 29.95 in 10.0 mi Variable 5.8 mph - N/A   Unknown
11:56 AM 91.9 °F 35.1 °F 13% 29.93 in 10.0 mi Variable 3.5 mph - N/A   Unknown
12:56 PM 93.9 °F 30.9 °F 11% 29.91 in 9.0 mi Variable 3.5 mph - N/A   Unknown
1:56 PM 96.1 °F 30.9 °F 10% 29.90 in 9.0 mi North 5.8 mph - N/A   Unknown
2:56 PM 97.0 °F 30.9 °F 10% 29.88 in 10.0 mi Calm Calm - N/A   Unknown
3:56 PM 99.0 °F 30.9 °F 9% 29.87 in 10.0 mi Variable 3.5 mph - N/A   Unknown
4:56 PM 97.0 °F 30.9 °F 10% 29.88 in 10.0 mi South 5.8 mph - N/A   Unknown
5:56 PM 98.1 °F 32.0 °F 10% 29.86 in 10.0 mi WSW 5.8 mph - N/A   Unknown
6:56 PM 93.9 °F 35.1 °F 13% 29.86 in 10.0 mi South 4.6 mph - N/A   Unknown
7:56 PM 86.0 °F 46.9 °F 26% 29.88 in 4.0 mi East 11.5 mph - N/A   Haze
8:21 PM 80.6 °F 48.2 °F 32% 30.03 in 2.5 mi East 8.1 mph - N/A   Haze
8:56 PM 78.1 °F 50.0 °F 37% 29.90 in 3.0 mi East 6.9 mph - N/A   Haze
9:56 PM 77.0 °F 62.1 °F 60% 29.90 in 10.0 mi East 9.2 mph - N/A   Unknown
10:56 PM 75.9 °F 62.1 °F 62% 29.90 in 10.0 mi East 8.1 mph - N/A   Unknown
11:56 PM 73.0 °F 61.0 °F 66% 29.91 in 10.0 mi West 5.8 mph - N/A   Unknown